www.pogodaiklimat.ru

Погода и климат >> Архив погоды >> Япония >> Румои


ПОГОДА в Румои

  • Прогноз погоды в Румои
  • Монитор погоды в Румои

АРХИВ ПОГОДЫ в Румои

Время (UTC), дата Ветер
(напр.,м/с)
 
Видим.   Явления Облачность Т
(С)
Тd
(С)
f
(%)
Тe
(С)
Тes
(С)
Комфортность P
(гПа)
Po
(гПа)
Тmin
(С)
Tmax
(С)
R
(мм)
R24
(мм)
S
(см)
10 10.08 ЮВ 5 20 км н/о +17.3 +16.5 95 +17 +17 1011.7 1008.7
11 10.08 ЮВ 6 20 км н/о +17.3 +16.2 93 +16 +16 1011.8 1008.8
12 10.08 ЮВ 6 20 км н/о +17.3 +16.0 92 +16 +16 1012.0 1009.0 +18.4 3
13 10.08 ЮВ 5 20 км н/о +17.3 +16.0 92 +17 +17 1012.0 1009.0
14 10.08 ЮВ 6 20 км н/о +17.3 +15.8 91 +17 +17 1012.0 1009.0
15 10.08 ЮВ 6 20 км н/о +17.1 +15.6 91 +16 +16 1011.9 1008.9
16 10.08 В 6 20 км н/о +17.0 +15.7 92 +16 +16 1012.3 1009.3
17 10.08 ЮВ 6 20 км н/о +16.8 +15.5 92 +16 +16 1012.2 1009.2
18 10.08 ЮВ 6 20 км н/о +16.7 +15.6 93 +16 +16 1012.3 1009.3
19 10.08 ЮВ 6 20 км н/о +16.6 +15.3 92 +16 +16 1012.7 1009.7
20 10.08 ЮВ 6 20 км н/о +16.5 +15.2 92 +15 +15 1012.7 1009.7
21 10.08 ЮВ 6 20 км н/о +16.7 +15.2 91 +16 +16 1012.7 1009.7
22 10.08 ЮВ 7 20 км н/о +17.8 +15.4 86 +17 +17 1012.8 1009.8
23 10.08 ЮВ 8 20 км н/о +18.4 +15.7 84 +18 +18 1012.8 1009.8
00 11.08 ЮВ 7 20 км н/о +19.9 +16.2 79 +22 +22 комфорт 1012.9 1009.9 +16.5
01 11.08 ЮВ 6 20 км н/о +20.3 +16.8 80 +23 +23 комфорт 1012.6 1009.6
02 11.08 ЮВ 6 20 км н/о +22.0 +17.2 74 +26 +26 душно 1012.0 1009.1
03 11.08 ЮВ 6 20 км н/о +22.7 +17.6 73 +28 +28 душно 1011.5 1008.6
04 11.08 ЮВ 3 20 км н/о +23.9 +17.9 69 +28 +28 душно 1011.4 1008.5
05 11.08 З 3 20 км н/о +23.8 +18.5 72 +28 +28 душно 1011.2 1008.3
06 11.08 СЗ 4 20 км н/о +23.2 +18.5 75 +29 +29 душно 1011.5 1008.6
07 11.08 С 3 20 км н/о +21.5 +18.5 83 +26 +26 душно 1011.3 1008.4
08 11.08 С 2 20 км н/о +21.5 +18.7 84 +26 +26 душно 1011.7 1008.8
09 11.08 СЗ 1 20 км н/о +21.1 +18.3 84 +25 +25 комфорт 1011.8 1008.9
10 11.08 СЗ 1 20 км н/о +21.0 +18.0 83 +27 +27 душно 1011.7 1008.8
11 11.08 ЮВ 3 20 км н/о +21.1 +18.9 87 +25 +25 комфорт 1012.1 1009.2
12 11.08 ЮВ 5 20 км слаб. дождь н/о +20.1 +18.4 90 +23 +23 комфорт 1011.5 1008.5 +24.3 0.0
13 11.08 ЮВ 6 20 км в посл. час дождь н/о +19.7 +17.1 85 +22 +22 комфорт 1010.8 1007.8
14 11.08 ЮВ 5 20 км н/о +19.4 +16.6 84 +21 +21 комфорт 1011.0 1008.0
15 11.08 ЮВ 6 20 км {дождь} н/о +19.1 +16.5 85 +20 +20 1010.6 1007.6
16 11.08 ЮВ 5 20 км н/о +19.0 +16.4 85 +20 +20 1009.8 1006.8
17 11.08 ЮВ 6 20 км н/о +19.0 +16.1 83 +20 +20 1009.2 1006.2
18 11.08 ЮВ 6 20 км {дождь} н/о +18.9 +15.8 82 +20 +20 1009.0 1006.0 0.0
19 11.08 В 6 20 км н/о +18.9 +15.8 82 +20 +20 1008.7 1005.7
20 11.08 ЮВ 6 20 км н/о +18.8 +15.9 83 +19 +19 1008.5 1005.5
21 11.08 ЮВ 5 20 км н/о +19.0 +16.1 83 +20 +20 1008.7 1005.7
22 11.08 ЮВ 5 20 км н/о +19.5 +16.4 82 +21 +21 комфорт 1009.0 1006.0
23 11.08 В 6 20 км н/о +20.1 +16.6 80 +23 +23 комфорт 1008.7 1005.8
00 12.08 В 5 20 км н/о +20.2 +16.8 81 +23 +23 комфорт 1008.5 1005.6 +18.8 0.0
01 12.08 В 5 20 км н/о +20.3 +16.9 81 +23 +23 комфорт 1008.5 1005.6
02 12.08 ЮВ 5 20 км н/о +20.9 +17.3 80 +25 +25 комфорт 1008.1 1005.2
03 12.08 ЮВ 5 20 км н/о +21.5 +17.5 78 +26 +26 душно 1007.9 1005.0
04 12.08 ЮВ 4 20 км н/о +22.0 +18.0 78 +27 +27 душно 1007.8 1004.9
05 12.08 ЮВ 3 20 км слаб. дождь н/о +21.9 +18.3 80 +27 +27 душно 1007.7 1004.8
06 12.08 ЮВ 2 11 км слаб. дождь н/о +21.6 +19.7 89 +27 +27 душно 1007.5 1004.6 0.0
07 12.08 З 1 20 км слаб. дождь н/о +21.7 +19.1 85 +27 +27 душно 1007.6 1004.7
08 12.08 З 5 19 км слаб. дождь н/о +21.7 +19.1 85 +27 +27 душно 1007.3 1004.4
09 12.08 ЮВ 2 20 км слаб. дождь н/о +21.4 +19.0 86 +26 +26 душно 1007.2 1004.3
10 12.08 ЮЗ 2 14 км слаб. дождь н/о +21.5 +19.3 87 +26 +26 душно 1007.4 1004.5
11 12.08 ЮВ 2 10 км слаб. дождь н/о +20.5 +19.9 96 +26 +26 душно 1007.6 1004.7
12 12.08 З 5 20 км слаб. дождь н/о +21.6 +19.7 89 +27 +27 душно 1007.4 1004.5 +22.4 2
13 12.08 В 3 12 км в посл. час дождь н/о +20.4 +19.6 95 +25 +25 комфорт 1007.2 1004.3
14 12.08 З 6 20 км н/о +21.7 +19.5 87 +27 +27 душно 1007.2 1004.3
15 12.08 З 7 20 км {дождь} н/о +21.8 +19.4 86 +27 +27 душно 1006.9 1004.0
16 12.08 З 7 20 км н/о +21.6 +19.9 90 +27 +27 душно 1007.0 1004.1
17 12.08 З 7 20 км н/о +21.8 +20.1 90 +27 +27 душно 1007.0 1004.1
18 12.08 З 6 20 км слаб. дождь н/о +21.8 +20.6 93 +28 +28 душно 1007.3 1004.4 0.0
19 12.08 З 6 20 км в посл. час дождь н/о +21.5 +19.6 89 +27 +27 душно 1007.4 1004.5
20 12.08 СЗ 5 4900 м слаб. дождь н/о +20.2 +19.9 98 +24 +24 комфорт 1007.6 1004.7
21 12.08 С 5 19 км в посл. час дождь н/о +20.0 +19.7 98 +23 +23 комфорт 1008.0 1005.1
22 12.08 С 3 20 км н/о +20.0 +19.2 95 +24 +24 комфорт 1008.3 1005.4
23 12.08 С 3 20 км н/о +20.8 +18.6 87 +25 +25 комфорт 1008.8 1005.9
00 13.08 СЗ 3 20 км {дождь} н/о +21.1 +18.9 87 +25 +25 комфорт 1009.0 1006.1 +19.7 0.5
01 13.08 СЗ 4 20 км н/о +22.0 +19.2 84 +27 +27 душно 1009.3 1006.4
02 13.08 СЗ 4 20 км н/о +22.1 +18.7 81 +27 +27 душно 1009.3 1006.4
03 13.08 СЗ 3 20 км н/о +22.6 +18.8 79 +28 +28 душно 1009.4 1006.5
04 13.08 СЗ 4 20 км н/о +22.7 +18.9 79 +29 +29 очень
душно
1009.4 1006.5
05 13.08 СЗ 3 20 км н/о +22.6 +18.2 76 +28 +28 душно 1009.3 1006.4
06 13.08 СЗ 3 20 км н/о +22.8 +18.4 76 +28 +28 душно 1009.4 1006.5
07 13.08 З 2 20 км н/о +23.0 +18.3 75 +29 +29 очень
душно
1009.2 1006.3
08 13.08 З 2 20 км н/о +22.4 +18.0 76 +27 +27 душно 1009.6 1006.7
09 13.08 ЮЗ 2 20 км н/о +22.0 +18.0 78 +27 +27 душно 1010.0 1007.1
10 13.08 Ю 1 20 км н/о +21.7 +18.3 81 +26 +26 душно 1010.3 1007.4
11 13.08 В 4 20 км н/о +20.3 +18.6 90 +24 +24 комфорт 1010.6 1007.6
12 13.08 В 5 20 км н/о +19.7 +16.9 84 +22 +22 комфорт 1010.4 1007.4 +23.4
13 13.08 ЮВ 7 20 км н/о +19.0 +16.2 84 +20 +20 1010.3 1007.3
14 13.08 ЮВ 4 20 км н/о +18.7 +15.6 82 +20 +20 1010.9 1007.9
15 13.08 ЮВ 4 20 км н/о +18.4 +15.1 81 +19 +19 1011.0 1008.0
16 13.08 ЮВ 5 20 км н/о +17.5 +15.0 85 +17 +17 1010.8 1007.8
17 13.08 ЮВ 7 20 км н/о +17.4 +15.4 88 +16 +16 1010.8 1007.8
18 13.08 ЮВ 7 20 км н/о +17.6 +16.0 90 +17 +17 1010.7 1007.7
19 13.08 ЮВ 6 20 км н/о +17.9 +16.8 93 +17 +17 1010.7 1007.7
20 13.08 ЮВ 6 20 км н/о +18.3 +17.2 93 +18 +18 1010.5 1007.5
21 13.08 ЮВ 6 20 км н/о +19.0 +17.0 88 +20 +20 1010.7 1007.7
22 13.08 ЮВ 5 20 км н/о +20.3 +17.3 83 +23 +23 комфорт 1010.6 1007.6
23 13.08 ЮВ 6 20 км н/о +20.8 +17.4 81 +24 +24 комфорт 1010.7 1007.8
00 14.08 ЮВ 6 20 км н/о +22.5 +18.1 76 +28 +28 душно 1010.7 1007.8 +17.2
01 14.08 ЮВ 5 20 км н/о +22.7 +18.3 76 +28 +28 душно 1010.6 1007.7
02 14.08 ЮВ 6 20 км н/о +24.6 +18.8 70 +29 +29 душно 1010.1 1007.2
03 14.08 В 6 20 км н/о +25.4 +18.8 67 +30 +30 душно 1009.6 1006.7
04 14.08 ЮВ 5 20 км н/о +25.3 +18.3 65 +30 +30 душно 1009.3 1006.4
05 14.08 Ю 3 20 км н/о +23.7 +19.7 78 +29 +29 душно 1009.3 1006.4
06 14.08 Ю 4 20 км н/о +25.0 +19.2 70 +30 +30 душно 1009.1 1006.2
07 14.08 Ю 2 20 км н/о +23.8 +19.1 75 +29 +29 душно 1009.0 1006.1
08 14.08 ЮВ 4 20 км н/о +24.5 +17.5 65 +29 +29 душно 1009.0 1006.1
09 14.08 ЮВ 4 20 км н/о +23.4 +16.9 67 +29 +29 душно 1009.1 1006.2
10 14.08 ЮВ 4 20 км н/о +22.2 +17.1 73 +27 +27 душно 1009.2 1006.3
11 14.08 ЮВ 5 20 км н/о +21.3 +16.9 76 +25 +25 комфорт 1009.2 1006.3
12 14.08 ЮВ 6 20 км н/о +20.7 +16.3 76 +24 +24 комфорт 1009.5 1006.6 +26.7
13 14.08 ЮВ 5 20 км н/о +19.9 +16.2 79 +22 +22 комфорт 1009.6 1006.6
14 14.08 ЮВ 5 20 км н/о +19.5 +16.0 80 +21 +21 комфорт 1009.3 1006.3
15 14.08 ЮВ 6 20 км н/о +19.4 +15.5 78 +21 +21 комфорт 1008.9 1005.9
16 14.08 ЮВ 6 20 км н/о +18.9 +15.4 80 +20 +20 1008.4 1005.4
17 14.08 ЮВ 7 20 км н/о +18.6 +15.7 83 +19 +19 1008.3 1005.3
18 14.08 ЮВ 7 20 км н/о +18.7 +16.0 84 +19 +19 1008.4 1005.4
20 14.08 ЮВ 6 20 км н/о +18.8 +16.1 84 +19 +19 1007.9 1004.9
21 14.08 ЮВ 7 20 км н/о +19.6 +16.5 82 +21 +21 комфорт 1007.9 1004.9
22 14.08 ЮВ 7 20 км н/о +20.8 +16.6 77 +24 +24 комфорт 1007.6 1004.7
23 14.08 ЮВ 7 20 км н/о +22.0 +17.0 73 +26 +26 душно 1007.6 1004.7
00 15.08 ЮВ 6 20 км н/о +23.4 +17.6 70 +29 +29 душно 1007.9 1005.0 +18.6
01 15.08 В 7 20 км н/о +24.4 +18.4 69 +29 +29 душно 1007.2 1004.3
03 15.08 ЮВ 6 20 км н/о +26.3 +20.4 70 +33 +33 очень
душно
1005.8 1002.9
04 15.08 В 6 20 км н/о +27.1 +20.5 67 +34 +34 очень
душно
1005.1 1002.2
06 15.08 ЮВ 7 20 км н/о +28.2 +21.5 67 +36 +36 очень
душно
1004.0 1001.2
08 15.08 В 5 20 км н/о +26.4 +21.0 72 +33 +33 очень
душно
1003.9 1001.0
09 15.08 В 7 20 км н/о +25.4 +19.5 70 +31 +31 очень
душно
1003.8 1000.9
10 15.08 ЮВ 6 20 км н/о +24.8 +19.6 73 +30 +30 душно 1004.0 1001.1
11 15.08 ЮВ 8 20 км н/о +24.5 +19.1 72 +29 +29 душно 1004.2 1001.3
12 15.08 ЮВ 6 20 км н/о +24.3 +18.3 69 +29 +29 душно 1003.9 1001.0 +28.8
13 15.08 ЮВ 8 20 км н/о +23.8 +18.2 71 +28 +28 душно 1003.5 1000.6
14 15.08 ЮВ 8 20 км н/о +23.6 +18.0 71 +28 +28 душно 1002.8 999.9
15 15.08 В 7 20 км н/о +23.4 +18.1 72 +29 +29 душно 1002.3 999.4
16 15.08 В 6 20 км н/о +23.1 +18.2 74 +29 +29 очень
душно
1002.0 999.1
17 15.08 В 6 20 км н/о +23.0 +18.1 74 +29 +29 очень
душно
1001.8 998.9
18 15.08 ЮВ 7 20 км н/о +22.9 +18.0 74 +28 +28 душно 1001.3 998.4
19 15.08 В 6 20 км н/о +22.4 +18.2 77 +28 +28 душно 1000.9 998.0
20 15.08 В 7 20 км н/о +22.2 +18.0 77 +27 +27 душно 1000.4 997.5
22 15.08 В 6 20 км н/о +24.1 +18.7 72 +29 +29 душно 999.6 996.7
23 15.08 В 6 20 км н/о +26.3 +19.5 66 +32 +32 очень
душно
998.6 995.8
00 16.08 В 6 20 км н/о +27.5 +19.8 63 +33 +33 очень
душно
998.1 995.3 +22.2
01 16.08 В 6 20 км н/о +28.5 +20.8 63 +36 +36 очень
душно
997.5 994.7
02 16.08 В 4 20 км н/о +31.0 +21.8 58 +39 +39 очень
душно
996.6 993.8
03 16.08 В 6 20 км н/о +30.8 +21.3 57 +39 +39 очень
душно
995.9 993.1
04 16.08 ЮВ 4 20 км н/о +31.3 +22.1 58 +40 +40 очень
душно
995.2 992.4
05 16.08 В 4 20 км н/о +30.3 +21.9 61 +39 +39 очень
душно
994.8 992.0
06 16.08 ЮВ 5 20 км н/о +29.1 +21.9 65 +37 +37 очень
душно
994.1 991.3
07 16.08 ЮВ 3 20 км н/о +27.7 +21.0 67 +35 +35 очень
душно
993.7 990.9
08 16.08 ЮВ 5 20 км н/о +27.6 +20.9 67 +35 +35 очень
душно
993.4 990.6
09 16.08 В 5 20 км н/о +27.6 +20.9 67 +35 +35 очень
душно
992.9 990.1
11 16.08 ЮВ 6 20 км слаб. дождь н/о +27.0 +20.6 68 +34 +34 очень
душно
992.3 989.5
12 16.08 ЮВ 6 20 км слаб. дождь н/о +24.6 +21.9 85 +32 +32 очень
душно
992.1 989.3 +32.4 0.0
13 16.08 ЮВ 5 20 км в посл. час дождь н/о +24.3 +22.0 87 +31 +31 очень
душно
991.3 988.5
15 16.08 ЮВ 7 20 км слаб. дождь н/о +24.2 +21.9 87 +31 +31 очень
душно
989.4 986.6
16 16.08 В 6 20 км слаб. дождь н/о +23.4 +22.2 93 +32 +32 очень
душно
988.9 986.0
17 16.08 ЮВ 7 5000 м дождь н/о +23.0 +22.3 96 +31 +31 очень
душно
988.3 985.4
18 16.08 ЮВ 6 4000 м дождь н/о +23.0 +22.5 97 +32 +32 очень
душно
988.6 985.7 10
19 16.08 В 5 6000 м дождь н/о +22.9 +22.7 99 +31 +31 очень
душно
988.8 985.9
20 16.08 В 6 14 км слаб. дождь н/о +23.2 +23.0 99 +32 +32 очень
душно
989.1 986.2
22 16.08 В 4 9000 м слаб. дождь н/о +24.0 +23.5 97 +32 +32 очень
душно
990.1 987.3
23 16.08 В 4 20 км в посл. час дождь н/о +24.3 +23.6 96 +33 +33 очень
душно
990.3 987.5
00 17.08 В 3 20 км {дождь} н/о +25.1 +23.5 91 +34 +34 очень
душно
990.8 988.0 +22.9 17
01 17.08 СЗ 2 8000 м дымка н/о +24.2 +23.4 95 +32 +32 очень
душно
991.9 989.0
02 17.08 В 2 10 км слаб. дождь н/о +24.6 +22.9 90 +33 +33 очень
душно
992.2 989.4
03 17.08 З 7 20 км в посл. час дождь н/о +23.9 +20.8 83 +30 +30 очень
душно
993.3 990.4
04 17.08 З 9 13 км н/о +22.9 +21.0 89 +30 +30 очень
душно
994.0 991.1
05 17.08 З 13 10 км н/о +22.6 +20.3 87 +29 +29 очень
душно
994.5 991.6
06 17.08 З 12 11 км {дождь} н/о +22.1 +19.9 87 +28 +28 душно 995.9 993.0 0.5
07 17.08 З 12 11 км н/о +21.7 +19.3 86 +27 +27 душно 996.6 993.7
08 17.08 З 12 10 км н/о +21.0 +19.3 90 +25 +25 комфорт 997.4 994.5
09 17.08 З 10 7000 м дымка н/о +20.6 +19.4 93 +24 +24 комфорт 998.5 995.6
10 17.08 З 10 5000 м слаб. дождь н/о +20.5 +19.5 94 +24 +24 комфорт 999.5 996.6

 

Местоположение метеостанции Румои (Япония): широта 43.95 долгота 141.63 высота над уровнем моря 28 м.

В архиве по умолчанию представлена погода в Румои за последнюю неделю. Архивные данные за месяц целиком и за предыдущие месяцы, начиная с января 2011 года, Вы можете получить, выбрав интересующий диапазон дат из раскрывающегося списка и нажав кнопку "Ввод!".


*Определитесь, кто Вы:
робот инопланетянин человек

Внимание! Время в таблицах - всемирное. Для получения местного времени необходимо прибавить поправку, которая равна 9 ч.

Смотрите также архив погоды в соседних городах и на ближайших метеорологических станциях:

Погода в Хаборо (Япония) (47 км)
Погода в Асахикаве (Япония) (62 км)
Погода в Ивамидзаве (Япония) (82 км)
Погода в Отару (Япония) (99 км)
Погода в Саппоро (Япония) (101 км)
Погода в Омурайсу (Япония) (127 км)
Погода в Китами Сачи (Япония) (133 км)
Погода в Куттяне (Япония) (137 км)
Погода в Момбецу (Япония) (144 км)
Погода в Томакомае (Япония) (148 км)

Пояснения к столбцам:

Ветер - указаны скорость ветра в м/с - средняя за 10 мин, порывы в срок и между сроками (в фигурных скобках) и направление, откуда дует ветер: С - северный, СВ - северо-восточный, В - восточный, ЮВ - юго-восточный, Ю - южный, ЮЗ - юго-западный, З - западный, СЗ - северо-западный.
Видимость - горизонтальная дальность видимости в метрах или километрах. При видимости от 1 до 10 км при отсутствии осадков обычно наблюдается дымка, при ухудшении видимости до 1 км и менее - туман. В сухую погоду видимость может ухудшаться дымом, пылью или мглою.
Явления - указаны атмосферные явления, наблюдавшиеся в срок или в последний час перед сроком; фигурными скобками обозначены явления, наблюдавшиеся между сроками (за 1-3 часа до срока); квадратными скобками обозначены град или гололедные отложения с указанием их диаметра в мм.
Облачность - указаны через наклонную черту общая и нижняя облачность в баллах и высота нижней границы облаков в метрах; квадратными скобками обозначены формы облаков: Ci - перистые, Cs - перисто-слоистые, Cc - перисто-кучевые, Ac - высококучевые, As - высокослоистые, Sc - слоисто-кучевые, Ns - слоисто-дождевые, Cu - кучевые, Cb - кучево-дождевые. Подробнее классификацию облаков см. в Атласе облаков (PDF).
T - Температура воздуха - температура, измеренная на высоте 2 м над землей.
Td - Температура точки росы - температура, при понижении до которой содержащийся в воздухе водяной пар достигнет насыщения.
f - Относительная влажность воздуха - влажноcть воздуха, измеренная на высоте 2 м над землей.
Te - Эффективная температура - температура, которую ощущает одетый по сезону человек в тени. Характеристика душности погоды. При расчете учитывается влияние влажности воздуха и скорости ветра на теплоощущения человека.
Tes - Эффективная температура на солнце - температура, которую ощущает человек, с поправкой на солнечный нагрев. Характеристика знойности погоды. Зависит от высоты солнца над горизонтом, облачности и скорости ветра. Ночью, в пасмурную погоду, а также при ветре 12 м/с и более поправка равна нулю.
P - Атмосферное давление - приведенное к уровню моря атмосферное давление.
Po - Атмосферное давление - измеренное на уровне метеостанции атмосферное давление.
Tmin - Минимальная температура - минимум температуры воздуха на высоте 2 м над землей.
Tmax - Максимальная температура - максимум температуры воздуха на высоте 2 м над землей.
R - Количество осадков - Количество выпавших осадков за период времени, мм. При наведении курсора мыши на число - период времени, за который выпало указанное количество осадков.
R24 - Количество осадков - Количество выпавших осадков за 24 часа, мм.
S - Снежный покров - Высота снежного покрова, см. При наведении курсора мыши на число - состояние снежного покрова и степень покрытия местности в баллах.